Regional Weather Roundup
Issued by NWS

Home | Current Version | Previous Version | Graphics & Text | Print | Product List | Glossary On
Versions: 1 2 3 4 5 6 7 8 9 10 11 12 13 14 15 16 17 18 19 20 21 22 23 24 25 26 27 28 29 30 31 32 33 34 35 36 37 38 39 40 41 42 43 44 45 46 47 48 49 50
000
ASUS45 KBOU 252207
RWRCO

WEATHER ROUNDUP FOR COLORADO
NATIONAL WEATHER SERVICE DENVER/BOULDER CO
400 PM MDT MON MAY 25 2015

NOTE: "FAIR" INDICATES FEW OR NO CLOUDS BELOW 12000 FEET WITH NO
SIGNIFICANT WEATHER AND/OR OBSTRUCTIONS TO VISIBILITY.

COZ001>005-013-030-031-252300-
...NORTHWEST COLORADO...

CITY           SKY/WX    TMP DP  RH WIND       PRES   REMARKS
CRAIG          PTSUNNY   61  42  49 MISG      30.00S
HAYDEN         PTSUNNY   57  39  51 NW8G18    30.00F
MEEKER         MOSUNNY   59  44  57 S18G25    30.00S
MOUNT WERNER   NOT AVBL
STEAMBOAT SPGS CLOUDY    52  41  66 NW6       30.02S
WALDEN         CLOUDY    50  36  57 N12       30.05R
$$

COZ006>008-011-252300-
...WEST CENTRAL VALLEYS...

CITY           SKY/WX    TMP DP  RH WIND       PRES   REMARKS
GRAND JUNCTION MOSUNNY   64  42  44 W9        29.95F
MONTROSE       MOSUNNY   62  40  44 CALM      30.02F
EAGLE          HVY RAIN  55  43  62 NW8       30.03R
RIFLE          CLOUDY    59  43  55 N5        29.98F
DELTA          MOSUNNY   69  43  38 MISG      29.96F
NUCLA          CLOUDY    63  37  39 SW3       30.03S
$$

COZ017>023-064>068-252300-
...SOUTHWEST COLORADO...

CITY           SKY/WX    TMP DP  RH WIND       PRES   REMARKS
DURANGO        PTSUNNY   58  38  47 W6        30.04S
CORTEZ         CLOUDY    50  46  86 E14       30.07R
PAGOSA SPRINGS PTSUNNY   51  42  71 E7        30.09S
TELLURIDE      HVY RAIN  42  37  82 CALM      30.16S
WOLF CREEK PAS NOT AVBL
$$

COZ009-010-012-014-032>034-037-058>063-252300-
...CENTRAL COLORADO...

CITY           SKY/WX    TMP DP  RH WIND       PRES   REMARKS
ASPEN          LGT RAIN  46  36  68 VRB3G25   30.06R
BUENA VISTA    PTSUNNY   55  33  44 SW18G25   30.01S
COPPER MTN     LGT SNOW  34  30  86 W20G26    30.19R WCI  22
BERTHOUD PASS  PTSUNNY   28  19  69 MISG      30.21R
COTTONWOOD PAS PTSUNNY   46  32  57 W14G29    30.09F
GUNNISON       MOSUNNY   55  36  47 SW14G28   30.05S
KREMMLING      PTSUNNY   55  36  47 SW12      30.03R
LEADVILLE      PTSUNNY   47  29  49 VRB6G17   30.08F
MONARCH PASS     N/A     32  30  93 MISG      30.29F
SALIDA         PTSUNNY   61  33  35 W10       30.07S
SUNLIGHT       FOG       37  37 100 CALM      30.19S VSB 3/4
WILKERSON PASS CLOUDY    43  23  45 NW7       30.17S
$$

COZ069>075-252300-
...SAN LUIS VALLEY/SANGRE DE CRISTO MOUNTAINS...

CITY           SKY/WX    TMP DP  RH WIND       PRES   REMARKS
ALAMOSA        PTSUNNY   57  35  43 W12       30.00R
LA VETA PASS   PTSUNNY  N/A N/A N/A MISG      30.10F THUNDER
SAGUACHE       MOSUNNY   61  32  33 NW16G28   30.01F
$$

COZ035-036-038>040-252300-
...NORTHERN COLORADO FRONT RANGE...

CITY           SKY/WX    TMP DP  RH WIND       PRES   REMARKS
DENVER INTL AP PTSUNNY   65  42  43 E16       29.91S
DMNS CITY PARK   N/A     64  36  35 N8G17     29.90R
AURORA         PTSUNNY   66  40  38 E13       29.92S
FRONT RANGE AP NOT AVBL
ERIE MUNI ARPT PTSUNNY   64  40  42 E10       29.90R
BOULDER MUN AP MOSUNNY   68  39  34 E7        29.89F
CENTENNIAL     PTSUNNY   64  35  34 NE8       29.91S
BROOMFIELD     CLOUDY    61  39  44 N8        29.92S
FORT COLLINS   PTSUNNY   61  45  55 NE17      29.92R
LONGMONT       PTSUNNY   69  45  41 NE18      29.91S
$$

COZ041-046-047-076>085-087-088-252300-
...PIKES PEAK/PALMER DIVIDE AND SOUTHERN FOOTHILLS...

CITY           SKY/WX    TMP DP  RH WIND       PRES   REMARKS
COLO. SPRINGS  PTSUNNY   61  37  41 SE12      29.95R
A. F. ACADEMY  NOT AVBL
ELLICOTT       NOT AVBL
FALCON         PTSUNNY   54  40  59 NE13      29.99S
FORT CARSON    NOT AVBL
LIMON          MOSUNNY   64  39  39 NE8       29.92F
MONUMENT HILL  NOT AVBL
TRINIDAD       CLOUDY    57  47  69 SE10      29.95F
$$

COZ042>045-048>051-090-091-252300-
...NORTHEAST COLORADO...

CITY           SKY/WX    TMP DP  RH WIND       PRES   REMARKS
GREELEY ARPT   PTSUNNY   61  45  55 NE18      29.93S
AKRON          CLOUDY    57  46  66 NW10      29.93S
BURLINGTON     MOSUNNY   66  47  50 N10       29.89F
WRAY           CLOUDY    64  49  58 W18       29.87F
STERLING       CLOUDY    59  50  72 NW14      29.90S
HOLYOKE        NOT AVBL
FORT MORGAN    CLOUDY    61  44  53 N9        29.93S
$$

COZ086-089-092>099-252300-
...SOUTHEAST COLORADO...

CITY           SKY/WX    TMP DP  RH WIND       PRES   REMARKS
PUEBLO         CLOUDY    65  43  44 E16       29.88S
LA JUNTA       MOSUNNY   69  46  43 E8        29.87S
LAMAR          MOSUNNY   71  47  42 N8        29.85S
SPRINGFIELD      N/A     71  42  35 SW6       29.87S
$$



USA.gov is the U.S. government's official web portal to all federal, state and local government web resources and services.